FW7873 Weather Reports


Display with metric or nautical units.
time (UTC)temp
F
wind
direction
speed
MPH
gust
MPH
rain 1hr
in
rain 24hr
in
rain mn
in
humidity
%
barometer
mb
20260902050129 74 0 0.0 0.0 0.00 0.00 0.00 92 1016.2
20260902044607 74 0 0.0 0.0 0.00 0.00 0.00 91 1016.2
20260902043114 74 0 0.0 0.0 0.00 0.00 0.00 91 1016.2
20260902041604 74 0 0.0 0.0 0.00 0.00 0.00 91 1016.3
20260902040109 74 0 0.0 0.0 0.00 0.00 0.00 91 1016.2
20260902034607 75 0 0.0 0.0 0.00 0.00 0.00 90 1015.9
20260902033101 75 0 0.0 0.0 0.00 0.00 0.00 89 1016.1
20260902031608 75 0 0.0 0.0 0.00 0.00 0.00 88 1015.9
20260902024605 76 0 0.0 0.0 0.00 0.00 0.00 87 1015.7
20260902023111 77 0 0.0 0.0 0.00 0.00 0.00 86 1015.8
20260902021604 77 0 0.0 0.0 0.00 0.00 0.00 86 1015.6
20260902020058 77 0 0.0 0.0 0.00 0.00 0.00 86 1015.7
20260902014603 77 0 0.0 0.0 0.00 0.00 0.00 85 1015.7
20260902013103 78 0 0.0 0.0 0.00 0.00 0.00 84 1015.9
20260902011613 78 0 0.0 0.0 0.00 0.00 0.00 84 1016.0
20260902010117 79 0 0.0 0.0 0.00 0.00 0.00 82 1015.8
20260902004603 79 0 0.0 1.0 0.00 0.00 0.00 81 1016.0
20260902003111 80 0 0.0 1.0 0.00 0.00 0.00 80 1015.7
20260902001622 80 0 0.0 1.0 0.00 0.00 0.00 79 1015.6
20260902000106 81 64 0.0 3.0 0.00 0.00 0.00 77 1015.7
20260901234604 82 54 0.0 4.0 0.00 0.00 0.00 77 1015.8
20260901233101 82 74 1.0 8.0 0.00 0.00 0.00 76 1015.9
20260901231608 83 130 0.0 4.0 0.00 0.00 0.00 75 1016.0
20260901224604 85 140 1.0 4.0 0.00 0.04 0.00 73 1015.7
20260901223105 87 76 1.0 7.0 0.00 0.04 0.00 74 1015.6
20260901221624 88 279 0.0 2.0 0.00 0.04 0.00 72 1015.3
20260901220122 88 163 0.0 7.0 0.00 0.04 0.00 71 1015.1
20260901214606 89 171 0.0 4.0 0.00 0.08 0.00 71 1015.2
20260901213107 88 0 0.0 3.0 0.00 0.08 0.00 72 1015.0
20260901211609 89 155 0.0 4.0 0.00 0.08 0.00 69 1014.9
20260901204602 88 0 0.0 6.0 0.00 0.11 0.00 73 1015.3
20260901203107 89 0 0.0 2.0 0.00 0.11 0.00 70 1015.2
20260901201603 88 250 0.0 3.0 0.00 0.11 0.00 71 1015.5
20260901200103 88 90 1.0 4.0 0.00 0.11 0.00 71 1015.5
20260901194608 90 50 1.0 5.0 0.00 0.11 0.00 69 1015.7
20260901193108 90 277 1.0 6.0 0.00 0.11 0.00 69 1015.7
20260901191617 89 128 1.0 3.0 0.00 0.11 0.00 71 1015.6
20260901190105 88 159 0.0 3.0 0.00 0.11 0.00 72 1015.9
20260901184608 88 65 1.0 6.0 0.00 0.11 0.00 71 1015.8
20260901183107 89 0 1.0 5.0 0.00 0.11 0.00 71 1015.7
20260901181610 89 346 1.0 8.0 0.00 0.11 0.00 70 1015.7
20260901180110 89 209 1.0 5.0 0.00 0.11 0.00 70 1015.5
20260901174604 89 73 2.0 4.0 0.00 0.11 0.00 70 1015.4
20260901173136 89 45 1.0 6.0 0.00 0.11 0.00 70 1015.5
20260901171607 89 0 0.0 4.0 0.00 0.11 0.00 68 1015.8
20260901170103 88 175 0.0 3.0 0.00 0.11 0.00 72 1015.9
20260901164603 88 0 1.0 3.0 0.00 0.12 0.00 71 1016.0
20260901163100 87 0 0.0 3.0 0.00 0.12 0.00 72 1016.1
20260901161613 87 248 0.0 2.0 0.00 0.12 0.00 73 1016.2
20260901160112 86 0 0.0 4.0 0.00 0.12 0.00 74 1016.3
20260901154603 86 128 0.0 3.0 0.00 0.12 0.00 75 1016.3
20260901153103 85 254 0.0 3.0 0.00 0.12 0.00 76 1016.4
20260901151602 84 0 0.0 3.0 0.00 0.12 0.00 77 1016.4
20260901150103 83 256 0.0 3.0 0.00 0.12 0.00 79 1016.5
20260901144605 82 41 0.0 4.0 0.00 0.12 0.00 81 1016.5
20260901143104 81 43 1.0 4.0 0.00 0.12 0.00 83 1016.6
20260901141605 79 59 0.0 2.0 0.00 0.12 0.00 85 1016.7
20260901140110 77 51 0.0 3.0 0.00 0.12 0.00 90 1016.6
20260901134603 75 0 0.0 0.0 0.00 0.12 0.00 93 1016.5
20260901133105 74 0 0.0 1.0 0.00 0.12 0.00 94 1016.3
20260901131602 73 0 0.0 1.0 0.00 0.12 0.00 96 1016.2
20260901130105 72 0 0.0 1.0 0.00 0.12 0.00 96 1016.2
20260901124558 71 0 0.0 2.0 0.00 0.12 0.00 96 1016.3
20260901123106 71 0 0.0 2.0 0.00 0.12 0.00 97 1016.3
20260901121604 70 65 0.0 1.0 0.00 0.12 0.00 97 1016.3
20260901120103 69 0 0.0 0.0 0.00 0.12 0.00 96 1016.2
20260901114647 69 0 0.0 0.0 0.00 0.12 0.00 96 1016.1
20260901113058 69 0 0.0 0.0 0.00 0.12 0.00 96 1015.8
20260901111603 69 0 0.0 0.0 0.00 0.12 0.00 96 1015.9
20260901110105 69 0 0.0 0.0 0.00 0.12 0.00 96 1015.8
20260901104604 69 0 0.0 0.0 0.00 0.12 0.00 96 1015.8
20260901103105 69 0 0.0 0.0 0.00 0.12 0.00 96 1015.7
20260901101606 69 0 0.0 0.0 0.00 0.12 0.00 95 1015.7
20260901100106 69 0 0.0 0.0 0.00 0.12 0.00 96 1015.7
20260901094603 70 0 0.0 1.0 0.00 0.12 0.00 96 1015.7
20260901093103 70 0 0.0 0.0 0.00 0.12 0.00 96 1015.7
20260901091619 70 0 0.0 1.0 0.00 0.12 0.00 96 1015.6
20260901090113 70 0 0.0 1.0 0.00 0.12 0.00 96 1015.5
20260901084604 70 0 0.0 0.0 0.00 0.12 0.00 95 1015.3
20260901083106 70 0 0.0 0.0 0.00 0.12 0.00 95 1015.4
20260901081603 70 0 0.0 0.0 0.00 0.12 0.00 95 1015.5
20260901080107 70 0 0.0 0.0 0.00 0.12 0.00 95 1015.5
20260901074602 71 0 0.0 0.0 0.00 0.12 0.00 95 1015.4
20260901073105 71 0 0.0 0.0 0.00 0.12 0.00 95 1015.3
20260901071606 71 0 0.0 0.0 0.00 0.12 0.00 94 1015.5
20260901070115 71 0 0.0 0.0 0.00 0.12 0.00 94 1015.5
20260901064601 71 0 0.0 0.0 0.00 0.12 0.00 93 1015.5
20260901063108 71 0 0.0 0.0 0.00 0.12 0.00 93 1015.4
20260901061605 71 0 0.0 0.0 0.00 0.12 0.00 93 1015.6
20260901060106 72 0 0.0 0.0 0.00 0.12 0.00 93 1015.6
20260901054602 72 0 0.0 0.0 0.00 0.12 0.00 93 1015.8
20260901053114 72 0 0.0 1.0 0.00 0.12 0.00 93 1015.8
20260901051601 73 0 0.0 1.0 0.00 0.12 0.00 92 1015.7